Terminal Aerodrome Forecast
Issued by NWS Wilmington, OH

Current Version | Previous Version | Graphics & Text | Print | Product List | Glossary On
Versions: 1 2 3 4 5 6 7 8 9 10 11 12 13 14 15 16 17 18 19 20 21 22
000
FTUS41 KILN 251100
TAFDAY
TAF
KDAY 251120Z 2512/2612 09006KT P6SM VCSH OVC060
     FM251600 10012G22KT P6SM -SHRA OVC035
     FM251800 10013G22KT 4SM -SHRA SCT015 OVC025
     FM252100 08012G22KT P6SM VCSH OVC008
     FM260400 04013KT P6SM SCT010 BKN040=

USA.gov is the U.S. government's official web portal to all federal, state and local government web resources and services.